sat.trackr.live / text

‹ back to catalog

QIANFAN-137

NORAD 69083 · 2026-104L

PAYLOAD ACTIVE UNKNOWN

§ Identity

Operator
Country
PRC
Launch date
2026-05-12
Launch site
TAISC
Launch vehicle
Mass (kg)
RCS (m²)

External: N2YO · Heavens-Above · Gunter

§ Orbital elements

Epoch: 2026-05-25T04:13:27.727968Z

Period
101.01 min
Inclination
88.9867°
Eccentricity
0.0003804
Mean motion
14.25596642 rev/d
Perigee alt
803.8 km
Apogee alt
809.2 km
Semi-major
7,184.6 km
B*
6.4421e-5
RAAN
344.2451°
Arg perigee
165.6746°
Mean anomaly
194.4556°
Rev number
182

§ Raw data

QIANFAN-1371 69083U 26104L   26145.17601537  .00000167  00000+0  64421-4 0  99912 69083  88.9867 344.2451 0003804 165.6746 194.4556 14.25596642  1826

JSON: /api/v1/satellites/69083 · /tle

For live sub-satellite position, see the globe view (requires WebGL).

§ Visibility from observer

Set your observer location to see the next 7 days of passes ≥ 10°. The values pass through the URL so the page stays shareable.

No JS? Fill the form by hand. The geolocation button needs JavaScript.